Starlink 32748

operational
NORAD ID: 62524 Int'l Des: 2025-004 Owner: SPXS Country: US Constellation: starlink
LEOCIRCULAR

关于 Starlink 32748

正在加载描述...

实时位置

正在加载3D地球...

即将过境

高度历史

Altitude vs Time

uPlot chart will show altitude changes over time

两行轨道根数

1 62524U 25004P 26035.29662088 .00039493 00000-0 14389-2 0 9992
2 62524 43.0053 48.2817 0002674 274.8969 85.1577 15.27534121 61359
Epoch: Feb 4, 2026 • Age: 7 hours

当前状态

高度 485.6 km
速度 7.63 km/s
星下点 32.25°N, 159.71°W
发射日期 Jan 8, 2025
运行时间 1 years
类型 internet

技术详情

分类 Payload
质量 730.00 kg
干质量 700.00 kg
总质量 730.00 kg
长度 0.30 m
直径 4.10 m
跨度 29.00 m
形状 Box + pan
制造商 SPXS
平台类型 Starlink V2M
阶段状态 In Orbit
所有者/国家 SPXS/US

大型星座

Loading constellations...